Probability
68 65 71 71 61 61 58 52 48 48 45 35 35 32 35 42 39 35 32 48 55 45 42 52 48 45 39 35 39 32 42 39 45 39 35 42 45 39 39 39 39 45 45
77 77 68 81 74 68 61 61 55 61 52 42 42 42 42 42 45 48 35 42 58 58 55 52 61 48 45 45 48 45 48 45 45 45 42 45 42 42 39 35 39 45 45
77 77 77 84 71 65 48 55 55 58 58 52 48 42 42 52 52 61 55 42 39 55 58 61 55 65 48 52 48 52 45 45 42 39 42 39 39 42 42 42 39 45 45
87 81 81 74 84 71 61 68 65 55 58 61 55 48 52 52 48 58 52 42 42 32 39 68 68 68 52 52 48 42 42 42 39 35 35 39 35 35 35 39 39 35 26
84 87 84 84 81 77 71 45 65 58 58 61 58 55 58 55 52 42 52 48 45 45 39 39 61 65 55 48 42 45 45 39 42 39 39 35 29 35 32 29 29 32 23
81 87 74 84 77 68 77 65 65 68 65 68 45 42 61 58 48 52 42 39 42 48 45 35 45 39 48 55 42 42 42 42 32 39 35 29 29 32 26 19 19 19 19
77 77 77 81 81 74 74 68 71 68 65 61 58 52 42 48 48 52 45 39 32 39 45 45 39 42 32 45 45 45 39 39 35 32 32 29 26 29 29 19 19 19 19
74 65 77 74 74 74 71 77 71 71 58 65 61 55 45 45 45 29 52 48 35 39 35 35 45 42 35 26 19 45 42 42 35 35 35 32 35 32 29 23 23 23 23
65 68 65 68 81 74 68 71 74 71 61 61 65 61 48 35 39 39 45 48 39 35 32 32 35 45 39 35 19 23 42 39 39 32 39 35 29 29 29 26 23 23 23
74 61 61 65 71 71 74 68 65 68 58 52 61 65 61 55 39 35 42 42 39 35 35 26 26 42 42 32 32 23 29 35 32 32 32 29 32 26 26 29 23 23 23
77 68 68 61 74 68 68 68 71 71 71 58 55 55 55 61 55 48 45 48 35 42 42 45 45 42 35 32 32 26 23 19 23 29 32 32 29 26 26 23 23 23 23
77 71 74 74 77 68 74 71 68 65 58 65 61 58 55 52 48 55 45 48 45 42 39 45 45 42 42 32 32 26 19 16 10 10 13 23 23 16 23 26 19 23 19
81 77 77 81 77 74 71 74 68 61 58 58 55 58 52 55 52 45 42 35 39 35 42 42 42 45 32 32 29 19 16 13 6 6 10 10 6 6 6 10 13 19 19
81 81 71 77 81 74 58 71 65 68 58 61 45 55 55 48 39 39 42 32 29 26 32 32 42 35 39 26 23 13 13 10 0 0 0 3 3 3 3 3 3 6 10
71 74 71 68 68 65 68 68 68 71 61 58 52 52 48 52 48 45 45 45 29 26 29 29 26 29 29 23 10 13 23 10 0 0 0 0 0 0 3 3 3 3 3
74 71 65 61 58 55 58 68 65 61 65 55 58 52 52 45 48 48 52 42 42 39 29 32 32 26 26 3 3 16 23 6 3 0 0 0 0 0 0 0 0 0 0
74 68 65 58 55 58 58 58 61 58 58 52 48 45 48 48 48 48 48 42 39 35 29 29 29 29 26 19 10 26 19 10 3 0 0 0 0 0 0 0 0 0 0
68 65 65 68 55 55 58 58 58 55 55 52 52 45 48 48 55 45 48 45 39 39 32 32 26 26 26 26 10 26 23 13 16 0 0 0 0 0 0 0 0 0 0
65 61 58 58 58 58 52 55 48 52 45 45 45 45 45 48 52 45 48 39 42 32 32 32 26 26 26 16 16 16 16 19 16 0 0 0 0 0 0 0 0 0 0
55 58 58 58 58 61 61 58 48 52 45 45 45 45 42 42 45 42 35 42 39 39 32 29 23 23 16 19 16 13 13 16 16 6 0 0 0 0 0 0 0 0 0
55 55 55 58 58 55 48 48 48 42 48 45 45 39 39 42 39 39 29 32 32 32 26 23 26 16 16 16 13 10 13 10 13 6 6 0 0 0 0 0 0 0 0
55 55 58 55 48 32 29 23 35 45 45 42 39 39 39 35 26 16 13 10 13 23 23 19 19 16 16 16 16 10 10 13 6 13 10 6 3 0 0 0 0 0 0
58 55 55 52 45 35 29 6 13 35 42 42 39 42 35 26 19 26 13 3 3 3 0 13 13 13 16 16 13 13 10 10 10 13 10 6 10 10 6 0 0 0 0
58 58 55 52 42 32 29 16 6 13 39 39 39 39 39 35 32 29 26 23 23 13 3 0 3 10 10 16 13 13 10 10 13 13 6 6 6 6 3 3 0 0 0
58 58 58 55 42 32 23 13 0 19 35 39 39 39 39 39 29 13 13 26 26 23 3 0 0 6 3 0 3 13 10 10 10 10 6 6 3 6 0 0 3 0 0
58 55 55 52 45 39 32 10 0 23 29 35 42 39 19 23 10 6 13 23 26 19 13 3 3 3 3 3 0 3 6 6 6 6 10 6 3 3 3 0 0 0 0
Height
5891 5891 5892 5892 5892 5892 5892 5892 5892 5892 5893 5893 5893 5892 5892 5891 5891 5891 5891 5892 5892 5893 5893 5893 5894 5894 5894 5894 5894 5894 5894 5895 5895 5896 5896 5896 5896 5896 5897 5897 5897 5898 5898
5891 5891 5891 5892 5892 5892 5892 5892 5892 5892 5892 5892 5892 5891 5891 5891 5890 5890 5890 5890 5890 5891 5892 5892 5892 5893 5893 5893 5893 5893 5892 5893 5894 5894 5894 5894 5895 5895 5895 5895 5895 5895 5896
5891 5891 5891 5892 5892 5892 5892 5892 5892 5892 5892 5891 5891 5890 5890 5890 5889 5888 5888 5888 5889 5890 5890 5891 5891 5891 5891 5891 5891 5891 5891 5891 5892 5892 5892 5892 5892 5893 5893 5893 5893 5893 5893
5891 5891 5891 5891 5891 5891 5891 5891 5891 5891 5891 5891 5890 5890 5889 5889 5888 5887 5887 5887 5887 5888 5889 5889 5889 5890 5889 5889 5889 5889 5889 5889 5890 5890 5890 5890 5890 5890 5890 5890 5890 5890 5891
5891 5891 5891 5891 5891 5891 5891 5891 5891 5891 5890 5890 5889 5889 5888 5888 5887 5886 5886 5886 5886 5887 5887 5888 5888 5888 5888 5888 5887 5887 5887 5887 5887 5887 5887 5887 5887 5887 5887 5887 5887 5887 5888
5891 5891 5891 5891 5891 5891 5891 5890 5890 5890 5889 5889 5888 5888 5887 5887 5886 5885 5885 5885 5885 5885 5886 5886 5886 5886 5886 5885 5885 5885 5885 5884 5884 5884 5884 5884 5884 5884 5884 5884 5884 5884 5884
5891 5891 5890 5890 5890 5890 5890 5890 5889 5889 5889 5888 5888 5887 5886 5885 5885 5884 5884 5884 5884 5884 5884 5884 5884 5883 5883 5883 5883 5882 5882 5882 5881 5881 5881 5881 5881 5880 5880 5880 5881 5881 5881
5891 5890 5890 5890 5890 5889 5889 5889 5888 5888 5888 5887 5886 5886 5885 5885 5884 5883 5882 5882 5882 5882 5882 5881 5881 5881 5881 5880 5880 5880 5879 5878 5878 5878 5877 5877 5877 5877 5877 5876 5877 5877 5877
5891 5890 5890 5890 5889 5889 5888 5888 5887 5887 5886 5886 5885 5885 5884 5883 5882 5882 5881 5880 5880 5880 5880 5879 5879 5878 5878 5878 5877 5876 5876 5875 5875 5874 5874 5873 5873 5873 5873 5872 5872 5872 5872
5891 5890 5890 5889 5889 5888 5887 5887 5886 5885 5885 5884 5883 5882 5882 5881 5880 5880 5879 5879 5878 5878 5878 5877 5877 5876 5875 5875 5874 5873 5873 5872 5871 5870 5870 5869 5869 5868 5868 5868 5868 5868 5867
5891 5890 5889 5889 5888 5887 5886 5886 5885 5884 5883 5882 5882 5881 5880 5879 5878 5878 5877 5877 5876 5876 5875 5875 5874 5873 5872 5871 5870 5869 5869 5868 5867 5866 5866 5865 5864 5863 5863 5863 5862 5862 5862
5891 5890 5889 5888 5887 5886 5885 5884 5883 5883 5882 5881 5880 5879 5878 5877 5876 5876 5875 5874 5874 5873 5872 5872 5871 5870 5869 5868 5867 5866 5865 5864 5863 5862 5861 5860 5859 5859 5858 5858 5857 5857 5857
5890 5889 5888 5887 5886 5885 5884 5883 5882 5881 5880 5879 5878 5877 5876 5875 5874 5873 5873 5872 5871 5870 5869 5868 5867 5866 5865 5864 5863 5861 5860 5859 5858 5857 5856 5855 5854 5854 5853 5852 5852 5852 5851
5889 5887 5886 5885 5884 5883 5882 5881 5880 5879 5878 5877 5876 5875 5874 5872 5871 5870 5869 5869 5868 5867 5866 5865 5863 5862 5860 5859 5858 5857 5856 5855 5853 5853 5851 5850 5850 5849 5848 5847 5847 5846 5846
5887 5886 5885 5883 5882 5881 5880 5879 5878 5877 5876 5874 5873 5872 5870 5869 5868 5867 5866 5865 5864 5863 5862 5861 5859 5858 5856 5854 5853 5852 5851 5849 5848 5847 5846 5845 5844 5843 5842 5841 5841 5840 5840
5884 5883 5882 5881 5880 5878 5877 5876 5875 5874 5873 5871 5870 5868 5867 5866 5864 5863 5862 5861 5859 5858 5857 5856 5854 5853 5851 5850 5848 5847 5845 5844 5843 5841 5840 5839 5838 5838 5837 5836 5835 5834 5834
5882 5880 5879 5878 5876 5875 5874 5873 5871 5870 5869 5868 5866 5864 5863 5861 5860 5859 5857 5856 5854 5853 5852 5851 5849 5847 5846 5844 5843 5841 5839 5838 5837 5836 5835 5834 5833 5832 5831 5830 5829 5828 5827
5879 5878 5876 5875 5873 5872 5870 5869 5868 5867 5865 5864 5862 5860 5858 5857 5855 5854 5852 5851 5849 5847 5846 5845 5843 5842 5840 5838 5837 5835 5834 5832 5831 5830 5829 5828 5827 5826 5825 5824 5823 5822 5821
5875 5874 5873 5871 5869 5868 5866 5865 5863 5862 5860 5859 5857 5855 5853 5852 5850 5848 5847 5845 5843 5842 5840 5839 5838 5836 5834 5832 5831 5829 5828 5827 5825 5824 5823 5822 5821 5820 5819 5818 5817 5816 5815
5871 5870 5869 5867 5866 5864 5862 5861 5859 5857 5856 5854 5852 5850 5848 5847 5845 5843 5841 5840 5838 5836 5834 5833 5831 5830 5828 5826 5824 5823 5822 5820 5819 5818 5817 5816 5814 5813 5812 5811 5810 5809 5808
5867 5866 5864 5863 5861 5859 5858 5856 5854 5852 5851 5849 5847 5845 5843 5841 5839 5837 5836 5834 5832 5830 5828 5827 5825 5823 5822 5820 5818 5817 5815 5814 5813 5811 5810 5809 5808 5807 5805 5804 5804 5803 5802
5862 5861 5859 5858 5856 5854 5852 5851 5849 5847 5845 5843 5841 5839 5837 5835 5833 5831 5829 5828 5826 5824 5822 5820 5819 5817 5815 5813 5812 5810 5809 5807 5806 5805 5803 5803 5801 5800 5798 5797 5796 5795 5794
5858 5856 5854 5852 5850 5849 5847 5845 5843 5841 5840 5837 5835 5833 5831 5828 5826 5825 5823 5821 5819 5816 5815 5814 5812 5810 5808 5807 5805 5803 5802 5800 5799 5797 5796 5795 5794 5793 5792 5790 5789 5788 5787
5852 5850 5848 5846 5844 5843 5841 5839 5837 5835 5833 5831 5829 5827 5824 5822 5820 5818 5816 5814 5812 5810 5807 5806 5804 5803 5801 5800 5798 5797 5795 5793 5792 5790 5788 5787 5786 5785 5784 5783 5781 5780 5780
5846 5844 5842 5840 5838 5836 5834 5832 5830 5828 5827 5825 5822 5820 5817 5815 5813 5811 5809 5807 5805 5802 5800 5798 5796 5795 5794 5792 5791 5789 5787 5786 5784 5783 5781 5779 5778 5776 5775 5775 5774 5773 5772
5840 5838 5836 5834 5832 5830 5828 5826 5823 5822 5820 5818 5816 5813 5810 5808 5806 5803 5801 5799 5797 5795 5793 5790 5788 5787 5786 5784 5783 5781 5779 5777 5776 5775 5773 5771 5769 5768 5767 5766 5765 5764 5763
Wind_Speed
1 1 1 2 2 2 3 4 4 4 4 5 6 6 6 6 6 6 6 6 6 6 7 7 7 8 8 8 8 7 7 7 6 6 6 6 6 6 6 7 8 8 7
2 2 2 2 3 3 4 4 4 5 5 6 6 6 6 7 6 7 7 6 7 7 7 7 8 8 8 7 7 8 8 7 8 8 8 8 8 8 8 9 9 9 9
2 3 2 2 3 4 4 4 4 5 5 6 7 7 6 7 7 7 7 7 7 7 7 7 7 9 9 9 8 8 8 9 10 10 11 10 10 11 10 11 11 10 10
2 3 3 3 4 4 5 5 5 5 6 7 7 7 7 7 7 7 6 7 7 7 7 8 9 9 9 9 8 9 9 9 10 10 11 11 11 11 11 11 11 11 11
3 3 4 4 4 5 5 5 5 6 6 7 7 7 7 7 7 7 7 7 7 8 8 8 9 10 9 9 9 10 10 10 10 11 11 11 12 12 12 11 12 12 12
3 4 5 5 5 5 6 6 6 7 7 7 7 7 8 8 7 7 7 7 7 7 8 8 9 10 10 9 9 11 11 11 11 12 12 12 13 13 13 13 13 13 13
4 4 5 5 6 6 6 7 7 7 7 7 7 7 8 8 8 8 7 7 7 7 8 9 10 10 10 10 11 11 12 13 13 13 13 14 14 14 14 14 14 14 15
5 5 6 6 7 7 7 7 7 7 7 8 8 8 9 8 8 8 8 7 8 9 9 10 10 10 10 11 12 12 13 14 14 14 15 15 15 15 15 16 16 17 17
6 6 6 6 7 7 7 7 7 8 8 9 9 10 10 10 9 9 8 8 8 9 9 9 9 10 11 12 12 13 14 15 15 15 16 16 16 16 16 17 17 17 18
6 6 6 7 7 8 7 8 8 8 9 9 10 10 11 11 10 10 9 9 9 9 10 11 11 12 12 12 13 14 14 15 15 15 16 16 17 17 17 18 19 19 18
7 7 7 7 8 8 9 9 9 9 10 10 10 11 11 11 11 10 10 11 11 11 12 12 12 13 13 13 14 14 15 15 16 16 16 16 17 18 18 18 19 19 19
8 8 8 8 9 9 10 10 10 10 11 11 11 11 12 12 12 12 12 12 12 13 13 14 14 15 15 15 16 16 16 16 16 16 17 18 18 19 19 18 19 19 19
9 10 10 10 11 11 11 12 12 12 12 12 12 13 13 14 14 14 14 14 14 15 15 15 16 16 16 16 17 17 17 17 17 18 18 18 18 18 18 18 19 19 19
11 11 11 12 12 13 13 13 13 13 13 13 13 13 14 15 15 15 15 15 15 16 17 18 18 18 18 18 18 18 18 19 18 19 19 19 18 18 19 19 20 20 20
12 13 13 13 14 14 14 13 13 13 14 14 15 15 15 15 16 16 17 17 17 17 18 19 19 20 20 20 19 19 19 19 19 19 19 20 20 20 20 20 21 21 21
14 14 14 15 15 15 15 15 15 16 16 16 16 17 17 17 17 17 18 18 19 19 19 20 20 20 20 20 20 20 19 19 20 20 20 21 20 20 20 21 21 21 22
16 16 16 16 16 16 17 17 18 18 18 17 18 18 18 18 18 19 19 20 20 21 21 21 22 22 21 21 20 20 20 20 20 20 20 20 21 21 21 21 21 21 22
17 17 17 18 18 18 18 19 19 20 20 19 19 19 19 19 20 20 21 22 22 22 22 21 22 22 22 22 21 21 21 20 20 20 20 21 21 21 21 22 22 22 22
18 19 19 19 19 19 19 20 20 20 20 21 20 20 20 20 20 21 22 22 22 22 22 22 22 22 22 22 21 21 21 20 20 21 21 22 22 22 23 23 23 23 22
19 20 20 20 20 20 20 20 21 21 21 21 21 21 21 22 22 22 22 23 23 23 23 23 23 22 22 22 21 21 21 21 22 21 22 22 22 23 23 24 24 23 23
20 21 21 21 21 21 21 22 22 22 22 22 22 23 23 23 24 24 24 24 23 23 23 24 23 23 23 22 22 22 22 22 22 22 22 22 23 23 24 24 24 24 24
21 22 22 22 22 22 22 22 22 23 23 24 24 24 24 24 25 25 25 25 25 25 24 25 25 25 25 24 23 23 23 23 23 23 23 23 23 24 24 24 24 24 24
23 23 23 23 23 24 23 23 23 24 25 25 25 25 26 26 26 26 26 26 26 26 26 26 27 27 26 25 25 25 25 25 25 24 24 24 25 25 25 25 25 25 24
25 25 24 24 24 24 24 25 25 25 26 26 26 26 27 27 27 27 27 27 27 27 27 27 28 28 27 27 27 26 26 26 26 26 26 26 25 25 26 25 25 25 25
26 27 26 25 24 25 25 26 26 26 26 27 27 27 28 27 27 28 28 28 28 28 28 28 28 27 28 28 28 28 27 27 27 27 27 27 26 26 26 26 26 25 25
28 28 27 26 26 26 26 26 27 27 27 28 28 28 28 28 28 29 29 29 29 29 29 28 28 28 29 29 29 29 28 28 28 27 27 27 27 27 26 26 26 25 25
Wind_Direction
347 343 349 338 322 318 316 311 315 313 305 302 299 295 293 292 291 286 289 286 281 279 279 278 276 278 281 283 284 276 272 275 279 280 281 268 270 268 265 261 259 262 262
330 323 316 313 321 328 329 323 319 322 315 312 308 305 304 299 298 292 295 288 278 280 287 283 276 273 276 281 282 283 276 270 273 275 274 272 272 269 267 266 261 262 260
322 324 320 320 325 330 331 330 324 321 321 320 311 306 306 305 301 297 289 287 281 280 282 286 283 279 279 282 281 282 282 279 277 272 269 270 270 268 268 267 262 262 262
319 314 310 310 317 323 321 319 315 318 320 319 317 315 313 311 304 302 292 286 281 279 279 283 286 288 287 284 285 287 289 282 278 274 271 269 268 267 272 268 265 260 261
311 313 310 305 308 310 312 313 315 314 317 316 315 315 318 314 308 305 297 293 286 282 282 280 282 288 292 288 288 294 293 287 283 277 275 271 270 267 268 268 265 260 263
312 318 317 308 302 304 306 308 310 313 317 314 315 315 316 315 312 310 301 299 293 284 285 285 285 291 293 287 291 290 292 289 285 280 276 277 277 272 268 270 267 264 266
318 317 317 313 304 303 306 307 306 307 314 316 316 316 314 312 307 311 306 303 297 291 288 288 288 291 292 287 286 285 286 286 283 282 279 278 277 275 271 268 268 268 271
331 323 320 321 315 308 308 311 309 310 308 312 316 317 317 315 311 312 307 297 297 299 294 292 291 293 294 293 288 287 287 285 284 282 282 281 279 277 274 270 269 269 272
335 331 326 325 323 319 312 310 309 309 309 308 307 307 309 313 311 312 309 300 300 304 299 300 301 302 300 298 297 294 290 287 286 285 284 283 283 281 279 275 273 271 272
343 338 336 329 325 321 313 310 310 312 311 313 313 309 308 311 313 315 312 308 305 302 298 300 304 303 299 298 298 297 295 293 288 286 285 283 282 280 278 276 275 272 270
343 338 333 330 329 328 323 319 317 316 313 312 313 313 313 312 312 312 308 304 302 301 298 296 299 301 300 299 298 298 296 296 294 291 287 283 282 282 280 277 274 273 272
339 336 331 327 323 322 322 321 316 314 313 311 311 310 310 310 309 308 306 303 301 300 300 299 297 298 300 300 300 299 298 296 295 294 292 290 288 286 285 283 280 278 276
331 326 323 320 318 317 316 317 317 314 313 312 311 307 306 305 307 305 303 303 301 300 300 300 301 299 298 301 301 299 298 296 295 294 294 295 292 287 286 284 282 279 279
321 321 319 315 313 313 312 312 313 314 314 313 310 306 303 302 302 301 300 300 298 297 298 299 300 300 298 297 298 298 297 295 294 294 294 294 294 291 288 285 282 281 280
312 311 311 311 311 311 310 310 310 310 310 309 309 307 304 302 303 300 298 298 296 296 297 298 298 298 298 297 297 295 294 294 294 293 294 293 293 291 289 287 285 282 279
310 309 308 308 309 308 306 306 305 304 307 308 309 309 306 302 301 302 301 298 296 296 296 298 299 299 299 299 298 295 294 294 295 294 295 295 293 291 290 288 286 285 282
309 310 310 309 308 307 305 303 302 303 305 304 305 306 306 303 301 302 301 299 297 294 294 296 298 299 298 297 296 294 294 295 294 294 295 294 293 291 290 289 286 286 285
308 307 308 307 307 307 306 304 303 303 304 302 302 303 303 303 302 301 301 301 299 296 295 296 296 296 297 295 294 295 294 295 294 293 294 294 292 290 290 290 287 287 286
307 306 306 306 305 305 306 306 303 302 303 303 302 301 303 304 303 303 302 302 300 297 295 296 296 296 297 296 294 294 294 294 294 294 294 294 293 290 289 289 288 287 285
307 306 307 307 306 305 305 305 303 301 302 302 301 300 301 302 301 302 302 301 301 299 298 298 298 297 297 296 295 294 293 293 293 293 294 294 292 291 288 288 288 286 284
307 306 305 305 304 303 302 303 303 302 302 303 302 302 301 301 301 300 299 299 300 299 299 300 299 299 297 295 294 294 293 292 292 293 293 292 291 290 288 287 287 285 283
305 306 304 302 303 302 301 301 302 303 302 303 302 301 300 299 300 299 298 298 298 298 297 297 297 297 296 294 292 293 293 293 292 292 292 291 291 289 288 287 286 285 284
305 307 303 301 300 300 301 300 299 300 302 303 303 301 300 299 298 297 296 297 297 297 296 295 295 295 294 292 291 291 291 292 293 293 292 291 290 290 288 285 284 284 284
304 305 303 300 299 299 299 300 300 300 301 303 303 302 301 298 297 297 297 297 297 296 295 293 294 293 291 290 291 291 291 291 292 294 295 294 292 291 289 286 283 281 281
303 305 303 301 300 298 298 300 300 300 301 302 302 301 301 299 298 297 297 296 295 295 294 294 293 292 292 291 291 290 289 289 290 290 292 293 292 291 289 287 284 282 280
299 300 300 299 298 299 298 299 299 299 299 299 300 299 298 298 297 297 296 295 294 294 293 292 292 292 291 291 290 291 290 289 288 289 289 289 289 289 288 286 283 281 281